This is the latest recevied weather packets stored in our database for station/object WA6OOO. If no packets are shown the sender has not sent any weather packets the latest 10 day(s).
| Time | Temp. | Humidity | Pressure | Rain* | Wind** | Luminosity | Snow |
|---|---|---|---|---|---|---|---|
| 1788553519 | 24.44° C | 66% | 1016.7 hPa | 0 mm | - | 699 W/m² | - |
| 1788553215 | 24.44° C | 68% | 1016.7 hPa | 0 mm | - | 696 W/m² | - |
| 1788552915 | 24.44° C | 67% | 1016.7 hPa | 0 mm | - | 699 W/m² | - |
| 1788552605 | 24.44° C | 66% | 1016.8 hPa | 0 mm | - | 701 W/m² | - |
| 1788552303 | 24.44° C | 67% | 1016.7 hPa | 0 mm | - | 701 W/m² | - |
| 1788551999 | 24.44° C | 68% | 1016.9 hPa | 0 mm | - | 699 W/m² | - |
| 1788551697 | 25° C | 65% | 1016.8 hPa | 0 mm | - | 701 W/m² | - |
| 1788551396 | 24.44° C | 67% | 1016.8 hPa | 0 mm | - | 700 W/m² | - |
| 1788551091 | 25° C | 66% | 1016.9 hPa | 0 mm | - | 701 W/m² | - |
| 1788550786 | 25° C | 67% | 1016.9 hPa | 0 mm | - | 697 W/m² | - |
| 1788550481 | 25° C | 67% | 1017.1 hPa | 0 mm | - | 693 W/m² | - |
| 1788550177 | 25° C | 66% | 1016.9 hPa | 0 mm | - | 689 W/m² | - |
| 1788549872 | 25° C | 65% | 1017.1 hPa | 0 mm | - | 693 W/m² | - |
| 1788549568 | 25° C | 66% | 1017 hPa | 0 mm | - | 684 W/m² | - |
| 1788549264 | 24.44° C | 67% | 1016.9 hPa | 0 mm | - | 684 W/m² | - |
| 1788548961 | 25° C | 65% | 1016.9 hPa | 0 mm | - | 680 W/m² | - |
| 1788548656 | 24.44° C | 67% | 1017 hPa | 0 mm | - | 679 W/m² | - |
| 1788548352 | 25° C | 65% | 1017 hPa | 0 mm | - | 668 W/m² | - |
| 1788548048 | 25° C | 66% | 1017.1 hPa | 0 mm | - | 667 W/m² | - |
| 1788547747 | 25° C | 65% | 1017.3 hPa | 0 mm | - | 656 W/m² | - |
| 1788547442 | 25° C | 66% | 1017.3 hPa | 0 mm | - | 657 W/m² | - |
| 1788547137 | 25° C | 63% | 1017.3 hPa | 0 mm | - | 649 W/m² | - |
| 1788546832 | 24.44° C | 67% | 1017.3 hPa | 0 mm | - | 639 W/m² | - |
| 1788546528 | 25° C | 65% | 1017.3 hPa | 0 mm | - | 643 W/m² | - |
| 1788546228 | 24.44° C | 66% | 1017.4 hPa | 0 mm | - | 626 W/m² | - |
* Rain latest hour (hover to see other rain measurements)
** Current wind speed in m/s (hover to see current wind gust speed)